Skip Page Navigation
NASA JPL Caltech
NASA Logo - Jet Propulsion Laboratory + View the NASA Portal
+ Center for Near-Earth Object Studies
JPL Home Earth Solar System Stars & Galaxies Technology
JPL Solar System Dynamics
BODIES ORBITS EPHEMERIDES TOOLS PHYSICAL DATA DISCOVERY FAQ SITE MAP
JPL Small-Body Database Browser
Search: [ help ]  
14819 Nikolaylaverov (1982 UC11)
Classification: Main-belt Asteroid          SPK-ID: 2014819
Ephemeris | Orbit Diagram | Orbital Elements | Mission Design | Physical Parameters | Discovery Circumstances ]

[ show orbit diagram ]
Orbital Elements at Epoch 2459396.5 (2021-Jul-01.0) TDB
Reference: JPL 29 (heliocentric ecliptic J2000)
 Element Value Uncertainty (1-sigma)   Units 
e .2112601006139824 4.9402e-08  
a 2.518527032729308 6.7869e-09 au
q 1.98646275839588 1.2506e-07 au
i 3.43371018277462 4.428e-06 deg
node 243.2763089223318 5.1895e-05 deg
peri 134.5844025932357 5.2477e-05 deg
M 256.5828077881426 8.6097e-06 deg
tp 2459815.880848142974
(2022-Aug-24.38084814)
3.5687e-05 TDB
period 1459.884010602254
4.00
5.9012e-06
1.616e-08
d
yr
n .2465949331491666 9.9679e-10 deg/d
Q 3.050591307062736 8.2207e-09 au
  Orbit Determination Parameters
   # obs. used (total)      1868  
   data-arc span      14139 days (38.71 yr)  
   first obs. used      1982-10-14  
   last obs. used      2021-06-30  
   planetary ephem.      DE441  
   SB-pert. ephem.      SB441-N16  
   condition code      0  
   norm. resid. RMS      .50294  
   source      ORB  
   producer      Otto Matic  
   solution date      2021-Jul-08 03:39:04  

Additional Information
 Earth MOID = .989571 au 
 Jupiter MOID = 2.42593 au 
 T_jup = 3.424 
[ show covariance matrix ]

Ephemeris | Orbit Diagram | Orbital Elements | Mission Design | Physical Parameters | Discovery Circumstances ]

Physical Parameter Table
Parameter Symbol Value Units Sigma Reference Notes
absolute magnitude H 14.64   n/a MPO614063  
diameter diameter 3.491 km 0.110 urn:nasa:pds:neowise_diameters_albedos::2.0[mainbelt] (http://adsabs.harvard.edu/abs/2011ApJ...741...68M)  
rotation period rot_per 103.267 h n/a LCDB (Rev. 2020-October); Warner et al., 2009 Result based on less than full coverage, so that the period may be wrong by 30 percent or so.
Published Reference List:
[Waszczak, A.; Chang, C.-K.; Ofeck, E.O.; Laher, F.; et al. (2015) Astron. J. 150, A75.]
geometric albedo albedo 0.209   0.034 urn:nasa:pds:neowise_diameters_albedos::2.0[mainbelt] (http://adsabs.harvard.edu/abs/2011ApJ...741...68M)  

14819 Nikolaylaverov           Discovered 1982 Oct. 25 by L. V. Zhuravleva at the Crimean Astrophysical Observatory.
Nikolay Pavlovich Laverov (b. 1930), vice-president of the Russian Academy of Sciences, is an outstanding scientist, author of classical works in uranium geology and geochemistry, radiogeoecology, new energy sources and environmental protection.
NOTE: some special characters may not display properly (any characters within {} are an attempt to place the proper accent above a character)
Reference: 20081212/MPCPages.arcLast Updated: 2008-12-12

Alternate Designations
 1982 UC11 = 1982 TO2 = 1986 WF8 
Ephemeris | Orbit Diagram | Orbital Elements | Mission Design | Physical Parameters | Discovery Circumstances ]
ABOUT SSD CREDITS/AWARDS PRIVACY/COPYRIGHT GLOSSARY LINKS
FirstGov 2021-Aug-02 01:10 UT
(server date/time)  
NASA Home Page
Site Manager:   Ryan S. Park
Webmaster  Alan B. Chamberlin